Sulphur, LA

9:25 PM CST on February 25, 2017 (GMT -0600)
Sulphur

Weather History for KUXL - January, 2013

Change the Weather History Date:

Saturday, January 19, 2013

  Actual Average (KLCH) Record (KLCH)
Temperature  
Mean Temperature 47 °F -  
Max Temperature 62 °F 59 °F 86 °F (1914)
Min Temperature 32 °F 43 °F 14 °F (1940)
Degree Days  
Heating Degree Days 18    
Moisture  
Dew Point 42 °F    
Average Humidity 85    
Maximum Humidity 100    
Minimum Humidity 52    
Precipitation  
Precipitation 0.00 in - - ()
Sea Level Pressure  
Sea Level Pressure 30.31 in    
Wind  
Wind Speed 1 mph (SSE)    
Max Wind Speed 7 mph    
Max Gust Speed -    
Visibility 7 miles    
Events Fog    
Averages and records for this station are not official NWS values.
T = Trace of Precipitation, MM = Missing Value Source: NWS Daily Summary

Daily Weather History Graph

Daily Weather History Graph

Search for Another Location

Airport or City:

Trip Planner

Search our weather history database for the weather conditions in past years. The results will help you decide how hot, cold, wet, or windy it might be!

Date:

Astronomy

Jan. 19, 2013 Rise Set
Actual Time 7:09 AM CST 5:39 PM CST
Civil Twilight 6:43 AM CST 6:05 PM CST
Nautical Twilight 6:14 AM CST 6:34 PM CST
Astronomical Twilight 5:45 AM CST 7:03 PM CST
Moon 12:01 PM CST (1/19) 12:50 AM CST (1/19)
Length of Visible Light 11h 21m
Length of Day
10h 29m
First Quarter, 57% of the Moon is Illuminated
Jan 19
First Quarter
Jan 26
Full
Feb 3
Last Quarter
Feb 10
New
Feb 17
First Quarter

Hourly Weather History & Observations

Time (CST) Temp. Windchill Dew Point Humidity Pressure Visibility Wind Dir Wind Speed Gust Speed Precip Events Conditions
12:15 AM 35.6 °F - 35.6 °F 100% 30.39 in 7.0 mi Calm Calm - N/A   Clear
12:35 AM 35.6 °F - 35.6 °F 100% 30.39 in 7.0 mi Calm Calm - N/A   Clear
12:55 AM 35.6 °F - 35.6 °F 100% 30.39 in 7.0 mi Calm Calm - N/A   Clear
1:15 AM 33.8 °F - 33.8 °F 100% 30.39 in 7.0 mi Calm Calm - N/A   Clear
1:35 AM 35.6 °F - 35.6 °F 100% 30.38 in 7.0 mi Calm Calm - N/A   Clear
1:55 AM 33.8 °F - 33.8 °F 100% 30.38 in 7.0 mi Calm Calm - N/A   Clear
2:15 AM 33.8 °F - 33.8 °F 100% 30.38 in 5.0 mi Calm Calm - N/A   Clear
2:35 AM 33.8 °F - 33.8 °F 100% 30.37 in 0.5 mi Calm Calm - N/A Fog Fog
2:55 AM 33.8 °F - 33.8 °F 100% 30.37 in 7.0 mi Calm Calm - N/A   Scattered Clouds
3:15 AM 33.8 °F - 33.8 °F 100% 30.37 in 5.0 mi Calm Calm - N/A   Clear
3:35 AM 33.8 °F - 33.8 °F 100% 30.37 in 2.0 mi Calm Calm - N/A   Clear
3:55 AM 33.8 °F - 33.8 °F 100% 30.37 in 7.0 mi Calm Calm - N/A   Clear
4:15 AM 32.0 °F - 32.0 °F 100% 30.37 in 7.0 mi Calm Calm - N/A   Clear
4:35 AM 33.8 °F - 33.8 °F 100% 30.36 in 7.0 mi Calm Calm - N/A   Clear
4:55 AM 33.8 °F - 33.8 °F 100% 30.36 in 4.0 mi Calm Calm - N/A   Clear
5:15 AM 33.8 °F - 33.8 °F 100% 30.35 in 4.0 mi Calm Calm - N/A   Clear
5:35 AM 32.0 °F - 32.0 °F 100% 30.35 in 5.0 mi Calm Calm - N/A   Clear
6:35 AM 33.8 °F - 33.8 °F 100% 30.35 in 4.0 mi Calm Calm - N/A   Clear
7:15 AM 33.8 °F - 33.8 °F 100% 30.35 in 0.5 mi Calm Calm - N/A Fog Fog
7:55 AM 37.4 °F - 37.4 °F 100% 30.35 in 2.5 mi Calm Calm - N/A   Clear
8:15 AM 41.0 °F 39.0 °F 41.0 °F 100% 30.35 in 4.0 mi East 3.5 mph - N/A   Clear
8:35 AM 42.8 °F 41.1 °F 42.8 °F 100% 30.35 in 7.0 mi ENE 3.5 mph - N/A   Clear
9:35 AM 48.2 °F - 44.6 °F 87% 30.37 in 10.0 mi East 4.6 mph - N/A   Clear
9:55 AM 50.0 °F - 46.4 °F 87% 30.37 in 10.0 mi ESE 3.5 mph - N/A   Clear
10:15 AM 51.8 °F - 44.6 °F 76% 30.37 in 10.0 mi East 3.5 mph - N/A   Clear
10:35 AM 53.6 °F - 46.4 °F 77% 30.37 in 10.0 mi Calm Calm - N/A   Clear
11:15 AM 57.2 °F - 46.4 °F 67% 30.35 in 10.0 mi Calm Calm - N/A   Clear
11:35 AM 59.0 °F - 46.4 °F 63% 30.34 in 10.0 mi Calm Calm - N/A   Clear
11:55 AM 59.0 °F - 44.6 °F 59% 30.33 in 10.0 mi Calm Calm - N/A   Clear
12:15 PM 59.0 °F - 46.4 °F 63% 30.31 in 10.0 mi East 3.5 mph - N/A   Clear
12:35 PM 59.0 °F - 44.6 °F 59% 30.30 in 10.0 mi Calm Calm - N/A   Clear
12:55 PM 60.8 °F - 44.6 °F 55% 30.28 in 10.0 mi Calm Calm - N/A   Clear
1:15 PM 62.6 °F - 44.6 °F 52% 30.27 in 10.0 mi South 5.8 mph - N/A   Clear
1:35 PM 62.6 °F - 44.6 °F 52% 30.26 in 10.0 mi South 5.8 mph - N/A   Clear
1:55 PM 62.6 °F - 44.6 °F 52% 30.25 in 10.0 mi South 5.8 mph - N/A   Clear
2:15 PM 62.6 °F - 46.4 °F 55% 30.24 in 10.0 mi SSW 5.8 mph - N/A   Clear
2:35 PM 62.6 °F - 46.4 °F 55% 30.24 in 10.0 mi SSW 6.9 mph - N/A   Clear
2:55 PM 62.6 °F - 46.4 °F 55% 30.24 in 10.0 mi South 5.8 mph - N/A   Clear
3:15 PM 62.6 °F - 46.4 °F 55% 30.23 in 10.0 mi SW 3.5 mph - N/A   Clear
3:35 PM 62.6 °F - 46.4 °F 55% 30.24 in 10.0 mi SSW 5.8 mph - N/A   Clear
3:55 PM 62.6 °F - 46.4 °F 55% 30.24 in 10.0 mi South 4.6 mph - N/A   Clear
4:15 PM 62.6 °F - 46.4 °F 55% 30.24 in 10.0 mi South 5.8 mph - N/A   Clear
4:35 PM 60.8 °F - 46.4 °F 59% 30.23 in 10.0 mi South 5.8 mph - N/A   Clear
4:55 PM 59.0 °F - 46.4 °F 63% 30.24 in 10.0 mi South 4.6 mph - N/A   Clear
5:15 PM 55.4 °F - 46.4 °F 72% 30.24 in 10.0 mi South 3.5 mph - N/A   Clear
5:35 PM 53.6 °F - 46.4 °F 77% 30.24 in 10.0 mi South 5.8 mph - N/A   Clear
5:55 PM 53.6 °F - 46.4 °F 77% 30.24 in 10.0 mi South 5.8 mph - N/A   Clear
6:15 PM 51.8 °F - 46.4 °F 82% 30.25 in 10.0 mi South 4.6 mph - N/A   Clear
6:35 PM 51.8 °F - 46.4 °F 82% 30.25 in 10.0 mi Calm Calm - N/A   Clear
6:55 PM 50.0 °F - 46.4 °F 87% 30.25 in 10.0 mi Calm Calm - N/A   Clear
7:15 PM 50.0 °F - 46.4 °F 87% 30.26 in 10.0 mi South 3.5 mph - N/A   Clear
7:35 PM 46.4 °F - 46.4 °F 100% 30.26 in 10.0 mi Calm Calm - N/A   Clear
7:55 PM 46.4 °F - 46.4 °F 100% 30.26 in 10.0 mi Calm Calm - N/A   Clear
8:15 PM 46.4 °F - 46.4 °F 100% 30.27 in 10.0 mi Calm Calm - N/A   Clear
8:35 PM 46.4 °F 43.5 °F 46.4 °F 100% 30.27 in 10.0 mi South 5.8 mph - N/A   Clear
8:55 PM 46.4 °F - 46.4 °F 100% 30.27 in 10.0 mi Calm Calm - N/A   Clear
9:15 PM 46.4 °F - 46.4 °F 100% 30.27 in 7.0 mi Calm Calm - N/A   Clear
9:35 PM 46.4 °F - 46.4 °F 100% 30.27 in 10.0 mi Calm Calm - N/A   Clear
9:55 PM 46.4 °F - 44.6 °F 93% 30.27 in 4.0 mi Calm Calm - N/A   Clear
10:15 PM 44.6 °F - 44.6 °F 100% 30.28 in 3.0 mi Calm Calm - N/A   Clear
10:35 PM 42.8 °F - 42.8 °F 100% 30.27 in 3.0 mi Calm Calm - N/A   Clear
10:55 PM 42.8 °F - 42.8 °F 100% 30.27 in 1.0 mi Calm Calm - N/A   Mist
11:15 PM 42.8 °F - 42.8 °F 100% 30.28 in 0.5 mi Calm Calm - N/A Fog Fog
11:35 PM 42.8 °F - 42.8 °F 100% 30.27 in 0.8 mi Calm Calm - N/A   Mist
11:55 PM 41.0 °F - 41.0 °F 100% 30.28 in 0.5 mi Calm Calm - N/A Fog Fog